FW1704 Weather Reports


time (UTC)temp
F
wind
direction
speed
knots
gust
knots
rain 1hr
in
rain 24hr
in
rain mn
in
humidity
%
barometer
mb
20260504205050 80 287 3.5 7.8 0.00 0.00 0.00 42 1015.9
20260504204611 80 346 2.6 7.8 0.00 0.00 0.00 41 1015.8
20260504204051 81 209 2.6 7.0 0.00 0.00 0.00 41 1015.9
20260504203554 81 240 1.7 7.8 0.00 0.00 0.00 42 1015.9
20260504203051 80 277 3.5 7.8 0.00 0.00 0.00 41 1016.1
20260504202552 80 217 2.6 7.0 0.00 0.00 0.00 41 1016.2
20260504202047 80 178 1.7 7.8 0.00 0.00 0.00 41 1016.2
20260504201553 80 130 1.7 7.8 0.00 0.00 0.00 42 1016.5
20260504201048 79 236 2.6 8.7 0.00 0.00 0.00 40 1016.4
20260504200551 79 245 2.6 8.7 0.00 0.00 0.00 41 1016.7
20260504195549 80 230 3.5 7.8 0.00 0.00 0.00 39 1016.8
20260504195048 80 242 4.3 7.8 0.00 0.00 0.00 39 1016.8
20260504194556 81 139 2.6 10.4 0.00 0.00 0.00 38 1016.9
20260504194048 80 292 1.7 10.4 0.00 0.00 0.00 42 1017.1
20260504193548 80 231 2.6 9.6 0.00 0.00 0.00 39 1017.3
20260504193059 80 134 2.6 10.4 0.00 0.00 0.00 41 1017.2
20260504192550 80 236 3.5 10.4 0.00 0.00 0.00 39 1017.3
20260504192048 80 188 5.2 10.4 0.00 0.00 0.00 40 1017.2
20260504191559 80 252 2.6 8.7 0.00 0.00 0.00 43 1017.3
20260504191051 79 146 3.5 11.3 0.00 0.00 0.00 42 1017.2
20260504190549 80 151 3.5 11.3 0.00 0.00 0.00 41 1017.3
20260504190054 80 259 2.6 7.8 0.00 0.00 0.00 41 1017.3
20260504185552 80 231 1.7 14.8 0.00 0.00 0.00 42 1017.4
20260504185053 79 218 3.5 14.8 0.00 0.00 0.00 40 1017.5
20260504184559 80 254 5.2 14.8 0.00 0.00 0.00 41 1017.5
20260504184055 80 155 2.6 7.0 0.00 0.00 0.00 40 1017.6
20260504183554 80 233 2.6 7.0 0.00 0.00 0.00 40 1017.6
20260504183104 79 234 2.6 7.0 0.00 0.00 0.00 43 1017.7
20260504182554 79 211 1.7 7.8 0.00 0.00 0.00 41 1017.7
20260504182053 79 157 2.6 8.7 0.00 0.00 0.00 41 1017.8
20260504181604 78 248 2.6 8.7 0.00 0.00 0.00 42 1017.7
20260504181053 78 236 2.6 9.6 0.00 0.00 0.00 43 1017.8
20260504180553 78 190 3.5 11.3 0.00 0.00 0.00 42 1017.9
20260504180059 78 278 4.3 11.3 0.00 0.00 0.00 41 1017.9
20260504175551 78 173 3.5 9.6 0.00 0.00 0.00 41 1017.9
20260504175053 79 69 2.6 7.8 0.00 0.00 0.00 41 1017.9
20260504174556 79 262 2.6 7.8 0.00 0.00 0.00 41 1017.9
20260504174053 79 195 2.6 8.7 0.00 0.00 0.00 41 1018.1
20260504173552 79 337 1.7 8.7 0.00 0.00 0.00 42 1018.0
20260504173101 78 246 2.6 8.7 0.00 0.00 0.00 43 1018.0
20260504172553 78 225 3.5 8.7 0.00 0.00 0.00 40 1017.9
20260504172053 78 132 4.3 8.7 0.00 0.00 0.00 41 1017.9
20260504171558 78 217 3.5 7.8 0.00 0.00 0.00 38 1017.9
20260504171053 78 238 2.6 9.6 0.00 0.00 0.00 41 1018.0
20260504170553 78 198 0.9 9.6 0.00 0.00 0.00 40 1018.0
20260504151053 74 257 2.6 5.2 0.00 0.00 0.00 55 1018.7
20260504150554 75 246 0.9 6.1 0.00 0.00 0.00 55 1018.7
20260504141053 66 167 0.9 2.6 0.00 0.00 0.00 82 1018.8
20260504140550 65 344 0.0 1.7 0.00 0.00 0.00 86 1018.7
20260504130551 57 0 0.0 0.0 0.00 0.00 0.00 93 1018.6
20260504110548 52 0 0.0 0.0 0.00 0.00 0.00 92 1018.1
20260504100549 52 0 0.0 0.0 0.00 0.00 0.00 92 1018.1
20260504081553 54 0 0.0 0.0 0.00 0.00 0.00 91 1018.2
20260504081051 54 0 0.0 0.0 0.00 0.00 0.00 91 1018.3
20260504080549 54 0 0.0 0.0 0.00 0.00 0.00 91 1018.4
20260504050550 57 0 0.0 0.0 0.00 0.00 0.00 89 1019.5
20260504045550 57 0 0.0 0.0 0.00 0.00 0.00 89 1019.5
20260504045048 57 0 0.0 0.0 0.00 0.00 0.00 89 1019.5
20260504044551 57 0 0.0 0.0 0.00 0.00 0.00 89 1019.5
20260504044049 57 0 0.0 0.0 0.00 0.00 0.00 88 1019.6
20260504043549 57 0 0.0 0.0 0.00 0.00 0.00 88 1019.6
20260504043057 57 0 0.0 0.0 0.00 0.00 0.00 88 1019.6
20260504042548 57 0 0.0 0.0 0.00 0.00 0.00 88 1019.6
20260504042050 58 0 0.0 0.0 0.00 0.00 0.00 88 1019.6
20260504041553 58 0 0.0 0.0 0.00 0.00 0.00 88 1019.6
20260504041053 58 0 0.0 0.0 0.00 0.00 0.00 88 1019.6
20260504040548 58 0 0.0 0.0 0.00 0.00 0.00 87 1019.7
20260504040051 58 0 0.0 0.0 0.00 0.00 0.00 87 1019.7
20260504035548 58 0 0.0 0.0 0.00 0.00 0.00 87 1019.7
20260504035048 58 0 0.0 0.0 0.00 0.00 0.00 86 1019.7
20260504034552 58 0 0.0 0.0 0.00 0.00 0.00 86 1019.6
20260504034049 59 0 0.0 0.0 0.00 0.00 0.00 86 1019.6
20260504033551 59 0 0.0 0.9 0.00 0.00 0.00 86 1019.5
20260504033049 59 0 0.0 0.9 0.00 0.00 0.00 85 1019.5
20260504032552 59 188 0.0 0.9 0.00 0.00 0.00 85 1019.6
20260504032054 59 0 0.0 0.9 0.00 0.00 0.00 85 1019.6
20260504031553 59 0 0.0 0.9 0.00 0.00 0.00 84 1019.7
20260504031051 59 0 0.0 0.9 0.00 0.00 0.00 84 1019.6
20260504030551 60 188 0.0 0.9 0.00 0.00 0.00 84 1019.5
20260504030053 60 0 0.0 0.0 0.00 0.00 0.00 83 1019.5
20260504025551 60 0 0.0 0.0 0.00 0.00 0.00 83 1019.5
20260504025053 60 0 0.0 0.0 0.00 0.00 0.00 83 1019.5
20260504024553 60 0 0.0 0.0 0.00 0.00 0.00 82 1019.4
20260504024055 61 0 0.0 0.0 0.00 0.00 0.00 82 1019.4
20260504023553 61 0 0.0 0.0 0.00 0.00 0.00 82 1019.3
20260504023053 61 0 0.0 0.0 0.00 0.00 0.00 81 1019.3
20260504022553 61 0 0.0 0.0 0.00 0.00 0.00 80 1019.2
20260504022052 62 0 0.0 0.0 0.00 0.00 0.00 79 1019.3
20260504021557 62 0 0.0 0.0 0.00 0.00 0.00 78 1019.2
20260504021049 62 0 0.0 0.0 0.00 0.00 0.00 77 1019.2
20260504020552 63 0 0.0 0.0 0.00 0.00 0.00 77 1019.1
20260504020131 63 0 0.0 0.0 0.00 0.00 0.00 76 1018.9
20260504015552 64 0 0.0 0.0 0.00 0.00 0.00 75 1018.9
20260504015054 64 0 0.0 0.0 0.00 0.00 0.00 75 1018.8
20260504014603 64 0 0.0 0.0 0.00 0.00 0.00 74 1018.8
20260504014051 65 0 0.0 0.0 0.00 0.00 0.00 72 1018.8
20260504013553 66 0 0.0 0.0 0.00 0.00 0.00 71 1018.7
20260504013116 66 0 0.0 0.0 0.00 0.00 0.00 71 1018.7
20260504012552 67 0 0.0 0.0 0.00 0.00 0.00 69 1018.7
20260504012055 68 0 0.0 0.0 0.00 0.00 0.00 68 1018.6
20260504011558 68 0 0.0 0.0 0.00 0.00 0.00 66 1018.6
20260504011052 69 0 0.0 0.0 0.00 0.00 0.00 65 1018.5
20260504010553 69 0 0.0 0.0 0.00 0.00 0.00 64 1018.4
20260504010057 70 0 0.0 0.9 0.00 0.00 0.00 63 1018.3
20260504005552 70 0 0.0 0.9 0.00 0.00 0.00 63 1018.5
20260504005053 71 0 0.0 0.0 0.00 0.00 0.00 62 1018.4
20260504004630 71 0 0.0 0.0 0.00 0.00 0.00 61 1018.4
20260504004053 72 0 0.0 0.0 0.00 0.00 0.00 60 1018.3
20260504003552 72 0 0.0 0.9 0.00 0.00 0.00 58 1018.3
20260504003101 73 0 0.0 0.9 0.00 0.00 0.00 57 1018.3
20260504002551 73 0 0.0 0.9 0.00 0.00 0.00 57 1018.2
20260504002053 74 0 0.0 1.7 0.00 0.00 0.00 56 1018.2
20260504001621 74 0 0.0 1.7 0.00 0.00 0.00 54 1018.2
20260504001053 74 0 0.0 1.7 0.00 0.00 0.00 51 1018.2
20260504000552 74 0 0.9 2.6 0.00 0.00 0.00 50 1018.2
20260504000105 75 0 0.0 3.5 0.00 0.00 0.00 50 1018.2
20260503235550 75 221 0.9 7.0 0.00 0.00 0.00 48 1018.3
20260503235054 75 200 0.9 7.0 0.00 0.00 0.00 47 1018.3
20260503234606 75 236 2.6 7.0 0.00 0.00 0.00 46 1018.5
20260503234054 75 228 1.7 5.2 0.00 0.00 0.00 48 1018.5
20260503233553 75 185 0.9 7.0 0.00 0.00 0.00 47 1018.4
20260503233100 76 219 2.6 7.0 0.00 0.00 0.00 45 1018.5
20260503232552 76 232 1.7 7.0 0.00 0.00 0.00 45 1018.5
20260503232051 77 255 1.7 7.0 0.00 0.00 0.00 45 1018.5
20260503231553 77 234 1.7 7.0 0.00 0.00 0.00 43 1018.6
20260503231053 77 193 0.9 7.0 0.00 0.00 0.00 44 1018.5
20260503230555 77 219 1.7 7.0 0.00 0.00 0.00 44 1018.5
20260503230110 77 242 1.7 6.1 0.00 0.00 0.00 43 1018.5
20260503225553 77 207 1.7 3.5 0.00 0.00 0.00 44 1018.6
20260503225053 77 206 0.9 7.0 0.00 0.00 0.00 45 1018.6
20260503224559 77 227 1.7 7.0 0.00 0.00 0.00 45 1018.6
20260503224052 77 213 2.6 7.0 0.00 0.00 0.00 42 1018.6
20260503223553 77 240 1.7 5.2 0.00 0.00 0.00 43 1018.6
20260503223053 77 245 0.9 7.0 0.00 0.00 0.00 41 1018.6
20260503222554 77 196 2.6 7.0 0.00 0.00 0.00 41 1018.6
20260503222051 77 234 2.6 7.0 0.00 0.00 0.00 41 1018.8
20260503221602 77 228 2.6 9.6 0.00 0.00 0.00 43 1018.7
20260503221052 77 327 1.7 9.6 0.00 0.00 0.00 42 1018.6
20260503220554 77 209 2.6 7.8 0.00 0.00 0.00 42 1018.7
20260503220058 77 240 3.5 7.8 0.00 0.00 0.00 44 1018.8
20260503215552 77 245 3.5 7.8 0.00 0.00 0.00 42 1018.9
20260503215051 77 211 4.3 7.8 0.00 0.00 0.00 44 1019.0
20260503214600 77 243 3.5 7.8 0.00 0.00 0.00 42 1019.1
20260503214051 77 182 2.6 9.6 0.00 0.00 0.00 42 1019.1
20260503213553 76 209 2.6 9.6 0.00 0.00 0.00 43 1019.2
20260503213059 76 232 3.5 9.6 0.00 0.00 0.00 43 1019.3
20260503212553 76 190 3.5 8.7 0.00 0.00 0.00 43 1019.4
20260503212050 76 157 3.5 8.7 0.00 0.00 0.00 43 1019.6
20260503211557 76 237 3.5 8.7 0.00 0.00 0.00 42 1019.5
20260503211056 76 192 3.5 8.7 0.00 0.00 0.00 41 1019.6
20260503210552 77 290 3.5 8.7 0.00 0.00 0.00 41 1019.6
20260503210052 77 252 2.6 8.7 0.00 0.00 0.00 41 1019.7
20260503205552 77 268 4.3 8.7 0.00 0.00 0.00 41 1019.7